This is the latest recevied weather packets stored in our database for station/object LU5MN-13. If no packets are shown the sender has not sent any weather packets the latest 10 day(s).
| Time | Temp. | Humidity | Pressure | Rain* | Wind** | Luminosity | Snow |
|---|---|---|---|---|---|---|---|
| 1778102832 | 20.56° C | 30% | 1002 hPa | - | - | - | - |
| 1778102530 | 20.56° C | 28% | 1001.8 hPa | - | - | - | - |
| 1778102227 | 20.56° C | 30% | 1001.9 hPa | - | - | - | - |
| 1778101920 | 20.56° C | 30% | 1001.8 hPa | - | - | - | - |
| 1778101618 | 20.56° C | 29% | 1001.8 hPa | - | - | - | - |
| 1778101316 | 20.56° C | 29% | 1001.8 hPa | - | - | - | - |
| 1778101014 | 20.56° C | 29% | 1001.8 hPa | - | - | - | - |
| 1778100711 | 20.56° C | 30% | 1001.7 hPa | - | - | - | - |
| 1778100409 | 20.56° C | 29% | 1001.7 hPa | - | - | - | - |
| 1778100106 | 21.11° C | 27% | 1001.7 hPa | - | - | - | - |
| 1778099804 | 20.56° C | 28% | 1001.7 hPa | - | - | - | - |
| 1778099501 | 20.56° C | 28% | 1001.6 hPa | - | - | - | - |
| 1778099198 | 21.11° C | 28% | 1001.6 hPa | - | - | - | - |
| 1778098896 | 20.56° C | 29% | 1001.4 hPa | - | - | - | - |
| 1778098594 | 20.56° C | 30% | 1001.4 hPa | - | - | - | - |
| 1778097989 | 21.11° C | 29% | 1001.1 hPa | - | - | - | - |
| 1778097687 | 21.11° C | 29% | 1001.1 hPa | - | - | - | - |
| 1778097384 | 20.56° C | 35% | 1001.1 hPa | - | - | - | - |
| 1778097081 | 21.11° C | 42% | 1001.1 hPa | - | - | - | - |
| 1778096779 | 20.56° C | 45% | 1001 hPa | - | - | - | - |
| 1778096477 | 20.56° C | 46% | 1000.9 hPa | - | - | - | - |
| 1778096175 | 20.56° C | 46% | 1000.8 hPa | - | - | - | - |
| 1778095872 | 20.56° C | 46% | 1001 hPa | - | - | - | - |
| 1778095570 | 20.56° C | 47% | 1000.7 hPa | - | - | - | - |
| 1778095267 | 20.56° C | 47% | 1000.8 hPa | - | - | - | - |
* Rain since midnight (hover to see other rain measurements)
** Current wind speed in m/s (hover to see current wind gust speed)